| time (UTC) | temp F | wind direction | speed MPH | gust MPH | rain 1hr in | rain 24hr in | rain mn in | humidity % | barometer mb |
| 20260510001503 | 80 | 170 | 0.0 | 4.0 | 0.00 | 0.01 | 0.01 | 42 | 1003.8 |
| 20260510000002 | 81 | 283 | 1.0 | 7.0 | 0.00 | 0.01 | 0.01 | 40 | 1004.0 |
| 20260509234608 | 83 | 226 | 1.0 | 9.0 | 0.00 | 0.02 | 0.01 | 38 | 1003.9 |
| 20260509233059 | 86 | 20 | 1.0 | 6.0 | 0.00 | 0.02 | 0.01 | 36 | 1004.1 |
| 20260509231558 | 86 | 91 | 2.0 | 7.0 | 0.00 | 0.02 | 0.01 | 35 | 1004.2 |
| 20260509230059 | 86 | 140 | 0.0 | 10.0 | 0.00 | 0.02 | 0.01 | 35 | 1004.2 |
| 20260509224554 | 87 | 162 | 1.0 | 7.0 | 0.00 | 0.18 | 0.01 | 34 | 1004.5 |
| 20260509223052 | 87 | 148 | 2.0 | 7.0 | 0.00 | 0.18 | 0.01 | 33 | 1004.7 |
| 20260509221606 | 88 | 150 | 1.0 | 4.0 | 0.00 | 0.18 | 0.01 | 32 | 1004.9 |
| 20260509220100 | 87 | 128 | 2.0 | 7.0 | 0.00 | 0.18 | 0.01 | 34 | 1005.0 |
| 20260509214549 | 87 | 131 | 2.0 | 7.0 | 0.00 | 0.18 | 0.01 | 32 | 1004.9 |
| 20260509213048 | 88 | 228 | 1.0 | 8.0 | 0.00 | 0.18 | 0.01 | 33 | 1005.0 |
| 20260509211547 | 88 | 293 | 1.0 | 5.0 | 0.00 | 0.18 | 0.01 | 34 | 1005.2 |
| 20260509210054 | 88 | 342 | 1.0 | 5.0 | 0.00 | 0.18 | 0.01 | 33 | 1005.3 |
| 20260509204543 | 89 | 219 | 1.0 | 5.0 | 0.00 | 0.18 | 0.01 | 34 | 1005.5 |
| 20260509203045 | 88 | 44 | 0.0 | 4.0 | 0.00 | 0.18 | 0.01 | 35 | 1005.5 |
| 20260509201540 | 88 | 251 | 1.0 | 5.0 | 0.00 | 0.18 | 0.01 | 33 | 1005.7 |
| 20260509200042 | 88 | 163 | 1.0 | 4.0 | 0.00 | 0.18 | 0.01 | 32 | 1006.1 |
| 20260509194534 | 87 | 219 | 0.0 | 5.0 | 0.00 | 0.18 | 0.01 | 35 | 1006.2 |
| 20260509193034 | 87 | 309 | 0.0 | 4.0 | 0.00 | 0.18 | 0.01 | 34 | 1006.4 |
| 20260509191531 | 87 | 114 | 0.0 | 2.0 | 0.00 | 0.18 | 0.01 | 36 | 1006.4 |
| 20260509190041 | 85 | 291 | 1.0 | 7.0 | 0.00 | 0.18 | 0.01 | 33 | 1006.8 |
| 20260509184533 | 86 | 255 | 1.0 | 4.0 | 0.00 | 0.18 | 0.01 | 34 | 1007.0 |
| 20260509183029 | 85 | 139 | 0.0 | 4.0 | 0.00 | 0.18 | 0.01 | 40 | 1007.1 |
| 20260509181522 | 84 | 107 | 1.0 | 2.0 | 0.00 | 0.18 | 0.01 | 40 | 1007.2 |
| 20260509180021 | 83 | 333 | 1.0 | 5.0 | 0.00 | 0.18 | 0.01 | 42 | 1007.5 |
| 20260509174524 | 83 | 212 | 1.0 | 5.0 | 0.00 | 0.18 | 0.01 | 45 | 1007.8 |
| 20260509173018 | 82 | 43 | 0.0 | 3.0 | 0.00 | 0.18 | 0.01 | 41 | 1008.0 |
| 20260509171515 | 83 | 207 | 2.0 | 6.0 | 0.00 | 0.18 | 0.01 | 42 | 1008.2 |
| 20260509170025 | 82 | 155 | 0.0 | 4.0 | 0.00 | 0.18 | 0.01 | 46 | 1008.3 |
| 20260509164510 | 81 | 134 | 0.0 | 4.0 | 0.00 | 0.18 | 0.01 | 47 | 1008.6 |
| 20260509163006 | 80 | 170 | 0.0 | 3.0 | 0.00 | 0.18 | 0.01 | 52 | 1008.5 |
| 20260509161504 | 78 | 139 | 1.0 | 5.0 | 0.00 | 0.18 | 0.01 | 51 | 1008.5 |
| 20260509160002 | 77 | 198 | 0.0 | 3.0 | 0.00 | 0.18 | 0.01 | 55 | 1008.6 |
| 20260509154559 | 75 | 119 | 0.0 | 5.0 | 0.00 | 0.18 | 0.01 | 62 | 1008.5 |
| 20260509153053 | 74 | 254 | 1.0 | 3.0 | 0.00 | 0.18 | 0.01 | 65 | 1008.3 |
| 20260509151550 | 72 | 174 | 0.0 | 1.0 | 0.00 | 0.18 | 0.01 | 70 | 1008.5 |
| 20260509150046 | 69 | 46 | 0.0 | 3.0 | 0.00 | 0.18 | 0.01 | 80 | 1008.3 |
| 20260509144546 | 67 | 37 | 0.0 | 3.0 | 0.00 | 0.18 | 0.01 | 85 | 1008.2 |
| 20260509143036 | 65 | 61 | 0.0 | 3.0 | 0.00 | 0.18 | 0.01 | 86 | 1008.3 |
| 20260509141536 | 64 | 38 | 0.0 | 2.0 | 0.00 | 0.18 | 0.01 | 92 | 1008.3 |
| 20260509140034 | 63 | 39 | 0.0 | 0.0 | 0.00 | 0.18 | 0.01 | 95 | 1008.4 |
| 20260509134530 | 61 | 38 | 0.0 | 0.0 | 0.00 | 0.18 | 0.01 | 96 | 1008.3 |
| 20260509133030 | 60 | 38 | 0.0 | 0.0 | 0.00 | 0.18 | 0.01 | 96 | 1008.2 |
| 20260509131522 | 59 | 38 | 0.0 | 1.0 | 0.00 | 0.18 | 0.01 | 96 | 1008.0 |
| 20260509130040 | 59 | 38 | 0.0 | 0.0 | 0.00 | 0.18 | 0.01 | 96 | 1007.8 |
| 20260509124529 | 58 | 39 | 0.0 | 0.0 | 0.00 | 0.18 | 0.01 | 96 | 1007.8 |
| 20260509123026 | 58 | 39 | 0.0 | 0.0 | 0.00 | 0.18 | 0.01 | 95 | 1007.7 |
| 20260509121523 | 57 | 39 | 0.0 | 0.0 | 0.00 | 0.18 | 0.01 | 96 | 1007.5 |
| 20260509120021 | 55 | 38 | 0.0 | 0.0 | 0.00 | 0.18 | 0.01 | 96 | 1007.5 |
| 20260509114519 | 54 | 38 | 0.0 | 0.0 | 0.00 | 0.18 | 0.01 | 96 | 1007.2 |
| 20260509113017 | 54 | 38 | 0.0 | 0.0 | 0.00 | 0.18 | 0.01 | 95 | 1007.0 |
| 20260509111516 | 54 | 38 | 0.0 | 0.0 | 0.00 | 0.18 | 0.01 | 96 | 1006.9 |
| 20260509110022 | 54 | 39 | 0.0 | 0.0 | 0.00 | 0.18 | 0.01 | 95 | 1006.7 |
| 20260509104515 | 54 | 39 | 0.0 | 0.0 | 0.00 | 0.18 | 0.01 | 95 | 1006.7 |
| 20260509103013 | 54 | 38 | 0.0 | 0.0 | 0.00 | 0.18 | 0.01 | 94 | 1006.7 |
| 20260509101518 | 56 | 39 | 0.0 | 0.0 | 0.00 | 0.18 | 0.01 | 95 | 1006.9 |
| 20260509100008 | 56 | 38 | 0.0 | 0.0 | 0.01 | 0.18 | 0.01 | 95 | 1007.2 |
| 20260509094507 | 56 | 39 | 0.0 | 0.0 | 0.01 | 0.18 | 0.01 | 95 | 1007.4 |
| 20260509093017 | 56 | 39 | 0.0 | 0.0 | 0.01 | 0.18 | 0.01 | 94 | 1007.4 |
| 20260509091508 | 56 | 39 | 0.0 | 0.0 | 0.01 | 0.18 | 0.01 | 94 | 1007.3 |
| 20260509090004 | 57 | 38 | 0.0 | 0.0 | 0.00 | 0.17 | 0.00 | 95 | 1007.3 |
| 20260509084510 | 57 | 38 | 0.0 | 1.0 | 0.00 | 0.17 | 0.00 | 95 | 1007.3 |
| 20260509083002 | 57 | 38 | 0.0 | 0.0 | 0.00 | 0.17 | 0.00 | 94 | 1007.2 |
| 20260509081601 | 57 | 39 | 0.0 | 0.0 | 0.00 | 0.17 | 0.00 | 94 | 1007.2 |
| 20260509081501 | 57 | 39 | 0.0 | 0.0 | 0.00 | 0.17 | 0.00 | 94 | 1007.2 |
| 20260509080059 | 57 | 39 | 0.0 | 0.0 | 0.00 | 0.17 | 0.00 | 93 | 1007.5 |
| 20260509074601 | 57 | 38 | 0.0 | 0.0 | 0.00 | 0.17 | 0.00 | 93 | 1007.5 |
| 20260509073053 | 58 | 38 | 0.0 | 0.0 | 0.00 | 0.17 | 0.00 | 93 | 1007.8 |
| 20260509071551 | 58 | 38 | 0.0 | 0.0 | 0.00 | 0.17 | 0.00 | 93 | 1007.8 |
| 20260509070055 | 59 | 38 | 0.0 | 0.0 | 0.00 | 0.17 | 0.00 | 93 | 1007.8 |
| 20260509064549 | 59 | 38 | 0.0 | 1.0 | 0.00 | 0.17 | 0.00 | 93 | 1007.9 |
| 20260509063045 | 59 | 38 | 0.0 | 0.0 | 0.00 | 0.17 | 0.00 | 92 | 1007.8 |
| 20260509061545 | 60 | 38 | 0.0 | 0.0 | 0.00 | 0.17 | 0.00 | 92 | 1008.1 |
| 20260509060042 | 60 | 38 | 0.0 | 0.0 | 0.00 | 0.17 | 0.00 | 91 | 1008.0 |
| 20260509054552 | 60 | 39 | 0.0 | 0.0 | 0.00 | 0.17 | 0.00 | 91 | 1007.9 |
| 20260509053131 | 61 | 39 | 0.0 | 0.0 | 0.00 | 0.17 | 0.00 | 90 | 1007.9 |
| 20260509051545 | 61 | 38 | 0.0 | 1.0 | 0.00 | 0.17 | 0.00 | 89 | 1007.9 |
| 20260509050043 | 62 | 23 | 0.0 | 4.0 | 0.00 | 0.17 | 0.00 | 89 | 1007.9 |
| 20260509044533 | 62 | 31 | 0.0 | 0.0 | 0.00 | 0.17 | 0.17 | 89 | 1007.9 |
| 20260509043033 | 62 | 37 | 2.0 | 5.0 | 0.00 | 0.17 | 0.17 | 90 | 1007.9 |
| 20260509041532 | 62 | 49 | 1.0 | 3.0 | 0.00 | 0.17 | 0.17 | 91 | 1007.7 |
| 20260509040031 | 62 | 200 | 1.0 | 5.0 | 0.00 | 0.17 | 0.17 | 91 | 1007.6 |
| 20260509034531 | 62 | 207 | 0.0 | 0.0 | 0.00 | 0.17 | 0.17 | 90 | 1007.1 |
| 20260509033029 | 62 | 206 | 0.0 | 1.0 | 0.00 | 0.17 | 0.17 | 89 | 1007.0 |
| 20260509031528 | 62 | 207 | 0.0 | 0.0 | 0.00 | 0.17 | 0.17 | 88 | 1006.5 |
| 20260509030033 | 63 | 207 | 0.0 | 0.0 | 0.00 | 0.17 | 0.17 | 87 | 1006.1 |
| 20260509024528 | 63 | 206 | 0.0 | 0.0 | 0.00 | 0.17 | 0.17 | 86 | 1005.7 |
| 20260509023030 | 64 | 207 | 0.0 | 3.0 | 0.00 | 0.17 | 0.17 | 85 | 1005.5 |
| 20260509021526 | 64 | 207 | 0.0 | 2.0 | 0.00 | 0.17 | 0.17 | 85 | 1005.4 |
| 20260509020025 | 64 | 321 | 0.0 | 3.0 | 0.00 | 0.17 | 0.17 | 86 | 1005.2 |
| 20260509014526 | 64 | 211 | 0.0 | 1.0 | 0.00 | 0.17 | 0.17 | 86 | 1005.0 |
| 20260509013027 | 65 | 211 | 0.0 | 0.0 | 0.00 | 0.17 | 0.17 | 83 | 1004.4 |
| 20260509011524 | 67 | 211 | 0.0 | 0.0 | 0.00 | 0.17 | 0.17 | 80 | 1004.3 |
| 20260509010024 | 69 | 243 | 0.0 | 2.0 | 0.00 | 0.17 | 0.17 | 77 | 1004.4 |
| 20260509004527 | 70 | 233 | 0.0 | 2.0 | 0.00 | 0.17 | 0.17 | 77 | 1004.2 |
| 20260509003040 | 69 | 156 | 1.0 | 7.0 | 0.00 | 0.17 | 0.17 | 76 | 1003.8 |